[[[{"header":{"parameterUnit":"kt","parameterCategory":2,"dx":1,"dy":1,"la1":30.253999710083008,"la2":30.299108505249023,"lo1":-89.0895004272461,"lo2":-89.04439544677734,"nx":28,"ny":28,"refTime":"2022-10-31T21:00:00:Z","depth":"0","parameterNumber":2,"parameterNumberName":"U-component_of_CURRENTS"},"data":[0.4718,0.4693,0.471,0.4618,0.4602,0.4472,0.4418,0.428,0.4248,0.4054,0.398,0.4,0.3797,0.3317,0.286,0.2776,0.2552,0.2402,0.2547,0.2891,0.2962,0.3029,0.2741,0.2358,0.2358,0.1613,0.1607,0.1603,0.4802,0.4842,0.4824,0.4796,0.4749,0.477,0.4703,0.4602,0.4508,0.4526,0.4522,0.4422,0.4252,0.4173,0.3868,0.3659,0.3488,0.3477,0.3084,0.3086,0.3756,0.348,0.3247,0.3247,0.3247,0.3248,0.3248,0.3248,0.4967,0.4962,0.4977,0.4935,0.4916,0.4871,0.4805,0.4774,0.4726,0.4661,0.4799,0.4794,0.4761,0.4889,0.4875,0.4511,0.4661,0.4278,0.4296,0.4169,0.3855,0.4638,0.4668,0.4672,0.4675,0.4679,0.4681,0,0.5064,0.5111,0.5085,0.5057,0.5024,0.4981,0.4937,0.4921,0.4904,0.489,0.4914,0.4959,0.5103,0.5038,0.5208,0.5215,0.4854,0.5145,0.4917,0.4147,0.3946,0.3866,0.4665,0.4731,0.4736,0.4739,0.4742,0.4744,0.5178,0.5173,0.5164,0.5139,0.5102,0.5073,0.5023,0.5009,0.497,0.4993,0.4967,0.507,0.5081,0.5272,0.5256,0.5428,0.5207,0.5246,0.4985,0.4772,0.475,0.457,0.4487,0.4794,0.4787,0.4782,0.4778,0,0.5236,0.5217,0.5184,0.5133,0.5119,0.51,0.5044,0.5008,0.5007,0.4961,0.4964,0.4968,0.5053,0.5111,0.5229,0.5224,0.5139,0.5383,0.5119,0.5092,0.4806,0.4769,0.4638,0.4542,0.5546,0.5546,0.5546,0,0.5246,0.5215,0.5168,0.5131,0.5111,0.5065,0.504,0.5004,0.4962,0.4919,0.49,0.4883,0.4863,0.4941,0.5002,0.5102,0.5153,0.5091,0.5112,0.4809,0.4781,0.4621,0.4574,0.5126,0.5122,0.5119,0.5115,0,0.5241,0.5164,0.5142,0.5112,0.5026,0.5021,0.4992,0.4924,0.4889,0.4861,0.4854,0.4826,0.4824,0.4872,0.4913,0.4843,0.5044,0.4955,0.5031,0.5036,0.4855,0.4835,0.46,0.511,0.5109,0.5108,0.5107,0,0.5194,0.5116,0.5087,0.5023,0.5011,0.4984,0.4934,0.4894,0.4831,0.4806,0.477,0.4738,0.4704,0.4643,0.4729,0.4631,0.474,0.4757,0.4773,0.4747,0.4723,0.483,0.4773,0.4507,0.5014,0.5011,0.5008,0,0.5217,0.5122,0.5033,0.4993,0.4967,0.4916,0.4866,0.4826,0.4786,0.4764,0.4685,0.4652,0.4596,0.4579,0.4539,0.4548,0.4623,0.4469,0.477,0.4785,0.473,0.4693,0.4364,0.4736,0.4968,0.4973,0.4976,0,0.5204,0.5052,0.5031,0.5027,0.4928,0.4904,0.4838,0.4821,0.482,0.4744,0.476,0.4608,0.4621,0.459,0.4534,0.4503,0.4577,0.4519,0.4522,0.4761,0.4759,0.466,0.468,0.4469,0.447,0.4471,0.4944,0,0.5193,0.5115,0.5056,0.4974,0.494,0.4906,0.4879,0.4841,0.4836,0.4846,0.4771,0.4701,0.4684,0.4588,0.4578,0.4516,0.462,0.4544,0.4616,0.4538,0.4762,0.4786,0.4534,0.4536,0.4538,0.454,0,0,0.5272,0.5155,0.5058,0.5,0.4997,0.4996,0.4997,0.4958,0.4955,0.4958,0.4946,0.4858,0.4798,0.4712,0.4658,0.4603,0.4698,0.4627,0.4549,0.4549,0.455,0.4758,0.4779,0.4543,0.4544,0.4544,0.4545,0,0.5255,0.5144,0.5069,0.5043,0.5024,0.5031,0.5022,0.5036,0.5033,0.4983,0.5008,0.4946,0.4842,0.4809,0.4777,0.4636,0.4736,0.4576,0.4551,0.4563,0.456,0.4559,0.4762,0.478,0.455,0.4549,0.4549,0,0.5319,0.5244,0.52,0.5117,0.5127,0.5114,0.5176,0.5145,0.5141,0.5174,0.5124,0.509,0.5047,0.4932,0.4879,0.4903,0.481,0.4748,0.4737,0.4811,0.4831,0.4826,0.4822,0.4893,0.4894,0.4895,0,0,0.5328,0.5208,0.5221,0.5135,0.5126,0.5177,0.5173,0.5204,0.5198,0.5193,0.518,0.5145,0.5085,0.5037,0.4988,0.4866,0.4974,0.4789,0.4773,0.4759,0.4823,0.4841,0.4834,0.4899,0.4899,0.4899,0,0,0.5367,0.5297,0.5328,0.5209,0.5224,0.5252,0.5214,0.5264,0.5238,0.524,0.5254,0.5243,0.5142,0.5123,0.5178,0.4977,0.5046,0.5033,0.4978,0.4958,0.4942,0.5039,0.5209,0,0,0,0,0,0.5412,0.5299,0.5328,0.5315,0.5266,0.524,0.524,0.5279,0.533,0.5292,0.5292,0.5299,0.515,0.52,0.5181,0.5085,0.4949,0.494,0.4931,0.4834,0.4813,0.4795,0,0,0,0,0,0,0.5407,0.5386,0.5333,0.5349,0.5342,0.5242,0.5322,0.533,0.5333,0.534,0.5304,0.5298,0.5294,0.5208,0.5192,0.5099,0.5214,0.4945,0.4938,0.4931,0.4827,0.481,0.4795,0,0,0,0,0,0.5404,0.5388,0.5281,0.5353,0.5346,0.5385,0.5323,0.5331,0.5327,0.5315,0.5313,0.5358,0.5293,0.5278,0.5198,0.5107,0.5226,0.5219,0.494,0.4934,0.4929,0.4818,0,0,0,0,0,0,0.5402,0.5399,0.5283,0.5286,0.5376,0.5392,0.5387,0.5331,0.5301,0.5301,0.5369,0.5374,0.5292,0.528,0.5269,0.5108,0.5235,0.5229,0.5225,0.4936,0.4931,0.4927,0,0,0,0,0,0,0.541,0.5399,0.5284,0.531,0.5316,0.5397,0.5393,0.532,0.5296,0.5353,0.5359,0.5371,0.5287,0.5281,0.5272,0.516,0.5242,0.5236,0.5232,0.5229,0.4932,0.4928,0,0,0,0,0,0,0.5408,0.5399,0.5309,0.5313,0.5318,0.5348,0.5332,0.526,0.5377,0.535,0.5383,0.5386,0.5285,0.5278,0.5275,0.5166,0.5161,0.5242,0.5238,0.5235,0.5233,0,0,0,0,0,0,0,0.5406,0.5433,0.5273,0.5316,0.5321,0.5313,0.5313,0.5313,0.5377,0.538,0.5382,0.5385,0.5276,0.527,0.5263,0.5171,0,0,0.5242,0.524,0,0,0,0,0,0,0,0,0.5439,0.5434,0.5274,0.5275,0.5276,0.5313,0.5313,0.5313,0.5378,0.538,0.5382,0.5384,0.5274,0.5269,0.5264,0,0,0,0,0,0,0,0,0,0,0,0,0,0,0,0.5274,0.5274,0,0.5313,0.5313,0.5313,0.5378,0.538,0.5381,0.5383,0.5273,0.5269,0.5264,0,0,0,0,0,0,0,0,0,0,0,0,0,0,0,0,0,0,0,0,0,0,0,0,0,0,0,0,0,0,0,0,0,0,0,0,0,0,0,0,0,0,0,0,0,0,0,0,0,0,0,0,0,0,0,0,0,0,0,0,0,0,0,0,0,0,0,0,0]}],[{"header":{"parameterUnit":"kt","parameterCategory":2,"dx":1,"dy":1,"la1":30.253999710083008,"la2":30.299108505249023,"lo1":-89.0895004272461,"lo2":-89.04439544677734,"nx":28,"ny":28,"refTime":"2022-10-31T21:00:00:Z","depth":"0","parameterNumber":3,"parameterNumberName":"V-component_of_CURRENTS"},"data":[-0.0267,-0.0231,-0.0255,-0.0107,-0.006,0.0075,0.0165,0.0354,0.0579,0.1043,0.1376,0.1616,0.1672,0.1197,0.0812,0.0687,0.0403,0.0505,0.0359,0.0216,0.0187,0.0159,-0.0001,0.0428,0.0428,0.0253,0.025,0.0249,-0.0367,-0.0398,-0.0346,-0.033,-0.0222,-0.025,-0.0085,0.0015,0.0286,0.0635,0.0917,0.1313,0.138,0.1269,0.1077,0.0846,0.0624,0.0691,0.0445,0.0391,0.0483,0.0351,0.0862,0.0862,0.0862,0.0862,0.0863,0.0863,-0.0576,-0.0546,-0.0627,-0.0577,-0.0521,-0.0407,-0.0312,-0.021,0.0014,0.0292,0.0461,0.0819,0.0942,0.1085,0.0981,0.0783,0.0675,0.056,0.0452,0.0391,0.0256,0.0296,0.0923,0.0922,0.0921,0.092,0.0919,0,-0.0811,-0.0856,-0.0904,-0.0876,-0.0828,-0.0776,-0.0716,-0.0578,-0.0582,-0.0354,-0.0032,0.0174,0.0499,0.0644,0.0747,0.0675,0.0164,0.0361,0.0181,-0.0201,-0.0306,-0.0341,-0.0465,0.014,0.0134,0.013,0.0127,0.0125,-0.1098,-0.1086,-0.1222,-0.1205,-0.1279,-0.1217,-0.116,-0.1229,-0.1116,-0.0878,-0.0698,-0.0384,-0.0173,0.0184,0.0093,0.0186,-0.0107,0.0229,-0.0183,-0.0374,-0.0477,-0.0587,-0.0654,0.0065,0.0072,0.0079,0.0084,0,-0.1241,-0.1457,-0.147,-0.1646,-0.1658,-0.157,-0.1598,-0.1471,-0.1451,-0.1194,-0.1123,-0.1062,-0.0789,-0.0824,-0.063,-0.0761,-0.0583,-0.0523,-0.0524,-0.0467,-0.0521,-0.0659,-0.0145,-0.016,-0.016,-0.0153,-0.0146,0,-0.1635,-0.1604,-0.1909,-0.19,-0.1807,-0.2028,-0.1855,-0.1904,-0.1838,-0.1657,-0.1783,-0.156,-0.1651,-0.1435,-0.1523,-0.1243,-0.1202,-0.1317,-0.1248,-0.1274,-0.1267,-0.1311,-0.1448,-0.1416,-0.1421,-0.1425,-0.1429,0,-0.1887,-0.2064,-0.2091,-0.2145,-0.2357,-0.2321,-0.237,-0.2377,-0.2314,-0.2199,-0.2064,-0.2007,-0.185,-0.1808,-0.1801,-0.1988,-0.1457,-0.1686,-0.146,-0.1447,-0.1286,-0.1273,-0.102,-0.1435,-0.1436,-0.1438,-0.144,0,-0.2261,-0.2376,-0.2421,-0.256,-0.2567,-0.2586,-0.2527,-0.2566,-0.2528,-0.2522,-0.2468,-0.2476,-0.2366,-0.256,-0.2305,-0.2459,-0.2381,-0.2332,-0.2308,-0.2134,-0.2208,-0.1661,-0.1347,-0.1506,-0.2078,-0.2085,-0.2091,0,-0.2435,-0.2553,-0.2739,-0.2751,-0.2791,-0.2944,-0.2953,-0.3,-0.3022,-0.2917,-0.2961,-0.285,-0.3072,-0.2981,-0.294,-0.2825,-0.2682,-0.2966,-0.2473,-0.2457,-0.2293,-0.2045,-0.1998,-0.1471,-0.2176,-0.2167,-0.2161,0,-0.2546,-0.2891,-0.2852,-0.289,-0.3075,-0.3105,-0.3178,-0.3191,-0.3099,-0.3231,-0.3058,-0.3176,-0.3151,-0.3139,-0.3171,-0.3078,-0.2821,-0.3094,-0.3085,-0.2816,-0.2331,-0.2183,-0.211,-0.282,-0.2811,-0.2805,-0.2229,0,-0.2855,-0.2907,-0.2952,-0.3044,-0.3124,-0.3174,-0.3282,-0.3329,-0.3367,-0.3376,-0.333,-0.3396,-0.3324,-0.3379,-0.3428,-0.3263,-0.32,-0.3255,-0.321,-0.3146,-0.2911,-0.2858,-0.3499,-0.3499,-0.35,-0.35,0,0,-0.2821,-0.2903,-0.3038,-0.31,-0.3133,-0.3264,-0.3275,-0.3347,-0.3442,-0.3404,-0.3468,-0.3434,-0.349,-0.3392,-0.3422,-0.348,-0.333,-0.3425,-0.3236,-0.3207,-0.318,-0.295,-0.2899,-0.3501,-0.3502,-0.3502,-0.3502,0,-0.2889,-0.2968,-0.3006,-0.3086,-0.321,-0.3264,-0.3288,-0.3387,-0.3399,-0.3464,-0.3441,-0.3445,-0.3511,-0.347,-0.3461,-0.3492,-0.335,-0.3512,-0.3432,-0.3248,-0.3219,-0.3192,-0.2962,-0.2915,-0.3503,-0.3503,-0.3503,0,-0.2884,-0.2965,-0.2989,-0.3114,-0.318,-0.3234,-0.3256,-0.3349,-0.3362,-0.3385,-0.341,-0.3431,-0.3437,-0.3461,-0.3474,-0.347,-0.3337,-0.3492,-0.3491,-0.3431,-0.3237,-0.3207,-0.318,-0.3504,-0.3503,-0.3503,0,0,-0.2901,-0.2962,-0.3061,-0.3119,-0.3166,-0.3236,-0.3286,-0.3313,-0.3368,-0.3382,-0.34,-0.3413,-0.3419,-0.343,-0.3461,-0.3505,-0.3376,-0.3488,-0.3488,-0.3488,-0.3429,-0.3238,-0.3211,-0.3502,-0.3502,-0.3502,0,0,-0.2899,-0.3004,-0.3015,-0.3083,-0.317,-0.3261,-0.331,-0.3323,-0.3365,-0.3355,-0.3353,-0.3359,-0.339,-0.3412,-0.3396,-0.3419,-0.3424,-0.3429,-0.3386,-0.3386,-0.3387,-0.33,-0.3351,0,0,0,0,0,-0.2956,-0.2999,-0.3008,-0.303,-0.3148,-0.3263,-0.3281,-0.3311,-0.3282,-0.3316,-0.333,-0.3304,-0.3393,-0.338,-0.3393,-0.3364,-0.3486,-0.3488,-0.3491,-0.3447,-0.3447,-0.3448,0,0,0,0,0,0,-0.2966,-0.2989,-0.3008,-0.3097,-0.3127,-0.3259,-0.3218,-0.3227,-0.3278,-0.3274,-0.3305,-0.3305,-0.3306,-0.3373,-0.3385,-0.3356,-0.3347,-0.3487,-0.3489,-0.3491,-0.3447,-0.3447,-0.3448,0,0,0,0,0,-0.2973,-0.2993,-0.3162,-0.3098,-0.3123,-0.3189,-0.3214,-0.3222,-0.3248,-0.3287,-0.3288,-0.3269,-0.3307,-0.3316,-0.338,-0.335,-0.3339,-0.3343,-0.3488,-0.349,-0.3492,-0.3447,0,0,0,0,0,0,-0.2979,-0.2993,-0.3169,-0.318,-0.3067,-0.3181,-0.3194,-0.3216,-0.3256,-0.3263,-0.325,-0.3246,-0.331,-0.3316,-0.3323,-0.3345,-0.3332,-0.3337,-0.3339,-0.349,-0.3491,-0.3493,0,0,0,0,0,0,-0.2985,-0.3001,-0.3174,-0.3133,-0.3139,-0.3175,-0.3186,-0.3242,-0.3254,-0.3213,-0.3214,-0.3248,-0.3286,-0.3316,-0.3321,-0.3409,-0.3327,-0.3331,-0.3334,-0.3336,-0.3491,-0.3492,0,0,0,0,0,0,-0.2993,-0.3008,-0.3129,-0.3134,-0.3139,-0.3258,-0.3222,-0.3325,-0.3266,-0.3209,-0.3258,-0.3255,-0.3286,-0.3292,-0.3321,-0.3406,-0.3408,-0.3327,-0.333,-0.3332,-0.3333,0,0,0,0,0,0,0,-0.3001,-0.2883,-0.3115,-0.3135,-0.3139,-0.3286,-0.3288,-0.329,-0.3265,-0.3262,-0.3259,-0.3256,-0.3303,-0.3307,-0.3312,-0.3404,0,0,-0.3327,-0.3329,0,0,0,0,0,0,0,0,-0.2879,-0.2882,-0.3115,-0.3118,-0.3121,-0.3286,-0.3288,-0.3289,-0.3265,-0.3262,-0.326,-0.3257,-0.3304,-0.3308,-0.3312,0,0,0,0,0,0,0,0,0,0,0,0,0,0,0,-0.3116,-0.3118,0,-0.3286,-0.3288,-0.3289,-0.3265,-0.3262,-0.326,-0.3258,-0.3305,-0.3308,-0.3311,0,0,0,0,0,0,0,0,0,0,0,0,0,0,0,0,0,0,0,0,0,0,0,0,0,0,0,0,0,0,0,0,0,0,0,0,0,0,0,0,0,0,0,0,0,0,0,0,0,0,0,0,0,0,0,0,0,0,0,0,0,0,0,0,0,0,0,0,0]}]],[[{"header":{"parameterUnit":"kt","parameterCategory":2,"dx":1,"dy":1,"la1":30.253999710083008,"la2":30.299108505249023,"lo1":-89.0895004272461,"lo2":-89.04439544677734,"nx":28,"ny":28,"refTime":"2022-10-31T21:00:00:Z","depth":"2","parameterNumber":2,"parameterNumberName":"U-component_of_CURRENTS"},"data":[0.2509,0.2579,0.2614,0.2661,0.275,0.2732,0.2693,0.2509,0.2388,0.2105,0.198,0.2047,0.2143,0.1748,0.1754,0.1624,0.1972,0.156,0.2435,0.2643,0.2717,0.2983,0.2782,0,0,0,0,0,0.2513,0.2603,0.2699,0.282,0.2846,0.2979,0.2997,0.2881,0.2803,0.2777,0.2751,0.2405,0.2277,0.2377,0.2206,0.219,0.2272,0.2144,0.2255,0.2342,0.242,0.2231,0.1561,0.1558,0.1556,0.1553,0,0,0.2544,0.2599,0.2743,0.2858,0.2976,0.3019,0.3016,0.3107,0.3125,0.3128,0.3271,0.3171,0.3214,0.3,0.2967,0.2972,0.325,0.3158,0.3196,0.3244,0.3087,0.2957,0.2649,0.2653,0.2657,0.2661,0.2664,0,0.2591,0.266,0.2763,0.2913,0.3029,0.3126,0.3282,0.3265,0.3487,0.3532,0.3609,0.3647,0.3729,0.3607,0.3618,0.363,0.3896,0.3704,0.4406,0.369,0.3574,0.3576,0.3612,0.341,0.3419,0.3425,0.343,0.3434,0.2685,0.271,0.292,0.2995,0.3123,0.3256,0.3354,0.3551,0.3623,0.3826,0.3863,0.4019,0.4081,0.4192,0.4222,0.4269,0.4491,0.3925,0.386,0.4401,0.44,0.4407,0.4412,0.3531,0.3519,0.3508,0.35,0,0.2749,0.2888,0.2982,0.3206,0.3274,0.3346,0.357,0.3623,0.379,0.3903,0.3969,0.4204,0.4346,0.4522,0.4708,0.4675,0.4717,0.4649,0.4283,0.4221,0.4466,0.4459,0.4397,0.4387,0.4378,0.4371,0.4365,0,0.2944,0.2992,0.3228,0.3272,0.3351,0.3554,0.3637,0.3783,0.3949,0.403,0.4237,0.4301,0.4574,0.4674,0.478,0.4752,0.492,0.4683,0.4672,0.4402,0.4352,0.4897,0.4884,0.501,0.5009,0.5009,0.5009,0,0.3089,0.3246,0.3313,0.3383,0.361,0.368,0.38,0.3978,0.4046,0.4236,0.4288,0.447,0.4554,0.4676,0.4788,0.4809,0.4915,0.4953,0.471,0.4691,0.4369,0.4314,0.5008,0.5008,0.5008,0.5008,0.5008,0,0.3301,0.3385,0.3465,0.3646,0.3667,0.3762,0.3898,0.4005,0.4178,0.4267,0.4396,0.4478,0.4607,0.4631,0.4784,0.477,0.4808,0.4847,0.485,0.4518,0.4494,0.4198,0.4185,0.4868,0.4867,0.4866,0.4865,0,0.3406,0.3481,0.3609,0.3706,0.3743,0.3897,0.4,0.4119,0.4229,0.4318,0.443,0.4513,0.4568,0.4604,0.468,0.4736,0.4779,0.4739,0.4775,0.4774,0.4487,0.4547,0.4213,0.4195,0.4853,0.4854,0.4855,0,0.3454,0.3663,0.3662,0.3722,0.3873,0.3884,0.4037,0.4102,0.415,0.4314,0.4363,0.4512,0.4537,0.4563,0.4593,0.4648,0.4754,0.4654,0.4654,0.4648,0.486,0.4567,0.4547,0.48,0.4802,0.4804,0.4845,0,0.3651,0.3701,0.3717,0.3778,0.3843,0.3878,0.3956,0.4047,0.4139,0.4182,0.4308,0.438,0.4441,0.4505,0.4506,0.46,0.4584,0.4586,0.4514,0.4615,0.462,0.4628,0.449,0.4488,0.4486,0.4484,0,0,0.3644,0.3653,0.3687,0.3719,0.3759,0.382,0.3841,0.3913,0.3991,0.4023,0.4077,0.4226,0.4279,0.4354,0.4412,0.4447,0.446,0.4425,0.4571,0.4582,0.4591,0.4601,0.4611,0.448,0.448,0.4479,0.4478,0,0.3636,0.3669,0.3676,0.3713,0.3764,0.3778,0.3802,0.383,0.3887,0.4,0.4023,0.4108,0.4229,0.4254,0.4281,0.4412,0.4395,0.4464,0.4499,0.4554,0.4567,0.4578,0.459,0.4601,0.4473,0.4474,0.4474,0,0.3623,0.3621,0.3631,0.3626,0.3653,0.3683,0.3662,0.372,0.3778,0.378,0.392,0.3969,0.4007,0.4123,0.4181,0.4146,0.4313,0.428,0.4291,0.4242,0.4292,0.4308,0.4323,0.4134,0.4133,0.4132,0,0,0.3603,0.3621,0.3591,0.3607,0.3616,0.3637,0.3668,0.3695,0.3733,0.3774,0.3832,0.3905,0.397,0.4022,0.4078,0.4173,0.4147,0.4241,0.4257,0.427,0.423,0.4283,0.4299,0.4129,0.4129,0.4129,0,0,0.3578,0.355,0.3571,0.3563,0.3584,0.3567,0.3627,0.3643,0.3726,0.3773,0.379,0.381,0.3939,0.3942,0.3893,0.4077,0.4008,0.4019,0.4085,0.4105,0.4121,0.4058,0.3869,0,0,0,0,0,0.3539,0.3541,0.3561,0.3559,0.3554,0.355,0.3561,0.3611,0.3644,0.3683,0.3753,0.3751,0.3928,0.3884,0.3898,0.3987,0.4084,0.4092,0.4099,0.4207,0.4228,0.4246,0,0,0,0,0,0,0.3537,0.3526,0.3562,0.3531,0.3533,0.3549,0.3558,0.3571,0.3642,0.3652,0.3737,0.3751,0.3763,0.3877,0.389,0.3976,0.3865,0.4087,0.4094,0.41,0.4214,0.4232,0.4246,0,0,0,0,0,0.3536,0.3528,0.3496,0.3535,0.3536,0.3596,0.3559,0.3571,0.3643,0.3675,0.3693,0.3688,0.376,0.3777,0.3885,0.3971,0.3857,0.3861,0.4091,0.4097,0.4101,0.4223,0,0,0,0,0,0,0.3535,0.3553,0.35,0.3505,0.3548,0.3601,0.3604,0.357,0.3666,0.3681,0.3622,0.3627,0.3758,0.3772,0.3784,0.397,0.385,0.3854,0.3857,0.4095,0.41,0.4103,0,0,0,0,0,0,0.3559,0.3556,0.3503,0.3516,0.3524,0.3605,0.3607,0.3649,0.3667,0.3608,0.3614,0.3623,0.3755,0.3768,0.3778,0.3841,0.3844,0.3849,0.3852,0.3854,0.4099,0.4102,0,0,0,0,0,0,0.356,0.3558,0.3515,0.3521,0.3527,0.3593,0.3647,0.3651,0.3648,0.3604,0.3652,0.3654,0.3751,0.3761,0.3773,0.3831,0.3838,0.3844,0.3847,0.385,0.3851,0,0,0,0,0,0,0,0.3561,0.3543,0.3467,0.3525,0.3531,0.3556,0.3557,0.3559,0.3648,0.365,0.3652,0.3653,0.3819,0.3823,0.3828,0.3823,0,0,0.3844,0.3846,0,0,0,0,0,0,0,0,0.3547,0.3544,0.3467,0.3468,0.3469,0.3556,0.3557,0.3558,0.3648,0.365,0.3651,0.3653,0.382,0.3824,0.3828,0,0,0,0,0,0,0,0,0,0,0,0,0,0,0,0.3467,0.3468,0,0.3556,0.3557,0.3558,0.3648,0.365,0.3651,0.3652,0.3821,0.3824,0.3828,0,0,0,0,0,0,0,0,0,0,0,0,0,0,0,0,0,0,0,0,0,0,0,0,0,0,0,0,0,0,0,0,0,0,0,0,0,0,0,0,0,0,0,0,0,0,0,0,0,0,0,0,0,0,0,0,0,0,0,0,0,0,0,0,0,0,0,0,0]}],[{"header":{"parameterUnit":"kt","parameterCategory":2,"dx":1,"dy":1,"la1":30.253999710083008,"la2":30.299108505249023,"lo1":-89.0895004272461,"lo2":-89.04439544677734,"nx":28,"ny":28,"refTime":"2022-10-31T21:00:00:Z","depth":"2","parameterNumber":3,"parameterNumberName":"V-component_of_CURRENTS"},"data":[0.0716,0.0775,0.0805,0.0982,0.1034,0.1169,0.1275,0.1409,0.1494,0.1606,0.1571,0.1595,0.1326,0.0987,0.0708,0.0474,0.0429,0.0414,0.0488,0.0574,0.0581,0.0398,0.0281,0,0,0,0,0,0.068,0.0701,0.0732,0.0817,0.0924,0.0925,0.1111,0.1218,0.1424,0.152,0.1645,0.1463,0.1297,0.1056,0.0621,0.0362,0.0344,0.0267,0.0306,0.0312,0.0317,0.0235,0.0259,0.0258,0.0257,0.0256,0,0,0.0635,0.0638,0.0659,0.07,0.0759,0.0901,0.0973,0.1096,0.126,0.1443,0.1523,0.159,0.1393,0.1033,0.0819,0.0526,0.052,0.0357,0.036,0.0364,0.0284,0.028,0.032,0.032,0.032,0.032,0.032,0,0.0642,0.0626,0.0623,0.0658,0.069,0.0754,0.0818,0.0911,0.0994,0.1117,0.1321,0.1397,0.1319,0.1157,0.0888,0.0741,0.052,0.049,0.054,0.0351,0.0355,0.036,0.0354,0.0418,0.0418,0.0418,0.0419,0.0419,0.0666,0.0649,0.0637,0.0654,0.0641,0.0639,0.0681,0.07,0.0779,0.0932,0.1019,0.109,0.1158,0.1084,0.0832,0.0675,0.061,0.0513,0.0336,0.0339,0.0344,0.0337,0.0331,0.0423,0.0423,0.0422,0.0422,0,0.0681,0.0679,0.0658,0.0646,0.0651,0.0629,0.0672,0.0709,0.0719,0.0814,0.0819,0.0869,0.0899,0.0813,0.0754,0.0586,0.0519,0.0474,0.0511,0.0516,0.0342,0.0334,0.0404,0.0403,0.0402,0.0401,0.04,0,0.0721,0.0699,0.0697,0.0677,0.0668,0.0653,0.0653,0.0635,0.0657,0.0716,0.0644,0.071,0.0574,0.0601,0.0485,0.0427,0.0492,0.0276,0.0287,0.0292,0.0288,0.0324,0.0322,0.033,0.0328,0.0327,0.0326,0,0.0752,0.0733,0.0712,0.0699,0.0688,0.0669,0.0653,0.0634,0.0646,0.0605,0.0635,0.0544,0.0544,0.0461,0.0396,0.0331,0.0416,0.0347,0.0264,0.0264,0.0321,0.0321,0.0324,0.0324,0.0324,0.0323,0.0323,0,0.0774,0.0771,0.074,0.0733,0.0729,0.0699,0.0681,0.0648,0.062,0.0571,0.0498,0.0455,0.0399,0.0291,0.0273,0.0234,0.0191,0.0182,0.0188,0.0162,0.0162,0.0313,0.03,0.0285,0.0284,0.0282,0.0281,0,0.0801,0.079,0.079,0.0745,0.0733,0.0711,0.0681,0.0642,0.0584,0.0541,0.0454,0.039,0.027,0.0217,0.016,0.0169,0.0144,0.0087,0.0212,0.0218,0.0165,0.0131,0.014,0.0282,0.0267,0.0268,0.0269,0,0.0832,0.0825,0.081,0.0798,0.0762,0.0761,0.0702,0.0675,0.0653,0.0503,0.0472,0.0313,0.0259,0.0229,0.017,0.0139,0.0128,0.0111,0.0113,0.0192,0.0192,0.0123,0.0127,0.0085,0.0086,0.0086,0.0257,0,0.0851,0.0834,0.0827,0.0818,0.0805,0.0772,0.0752,0.069,0.0599,0.0555,0.0451,0.0362,0.0285,0.022,0.0185,0.0136,0.0167,0.0152,0.0177,0.014,0.0222,0.0231,0.0148,0.015,0.0151,0.0152,0,0,0.0868,0.0874,0.089,0.0883,0.0867,0.0835,0.0814,0.0769,0.0675,0.0644,0.0563,0.042,0.0349,0.0302,0.0237,0.0217,0.0245,0.0179,0.015,0.0149,0.0148,0.0224,0.0231,0.0154,0.0155,0.0155,0.0156,0,0.0898,0.09,0.09,0.0892,0.0869,0.0857,0.0841,0.0786,0.0721,0.063,0.0578,0.0492,0.0372,0.0332,0.0304,0.0238,0.0246,0.0181,0.0146,0.0159,0.0156,0.0154,0.0228,0.0234,0.0159,0.0158,0.0158,0,0.0923,0.094,0.0936,0.095,0.0923,0.0907,0.0884,0.0835,0.079,0.074,0.0606,0.0547,0.0503,0.0405,0.0355,0.0361,0.0275,0.0255,0.0249,0.0278,0.0295,0.0292,0.0288,0.0334,0.0335,0.0335,0,0,0.0946,0.0951,0.0969,0.0959,0.0957,0.0917,0.0892,0.0843,0.079,0.0742,0.0655,0.0573,0.0521,0.0461,0.0413,0.0341,0.039,0.0274,0.0266,0.0259,0.0283,0.0299,0.0295,0.0336,0.0336,0.0336,0,0,0.0944,0.0973,0.0959,0.0965,0.095,0.0927,0.0885,0.0849,0.0762,0.0714,0.0654,0.0629,0.0527,0.0507,0.0534,0.0374,0.0412,0.0406,0.0363,0.0353,0.0345,0.0383,0.0486,0,0,0,0,0,0.0985,0.099,0.0978,0.098,0.0961,0.0956,0.0945,0.0865,0.0809,0.0775,0.0695,0.0652,0.0497,0.052,0.0506,0.0421,0.0355,0.0351,0.0348,0.0278,0.0267,0.0258,0,0,0,0,0,0,0.0986,0.0991,0.0978,0.097,0.0964,0.0955,0.0895,0.0873,0.0808,0.079,0.0673,0.0652,0.0607,0.0523,0.0512,0.043,0.0489,0.0353,0.0351,0.0348,0.0275,0.0266,0.0258,0,0,0,0,0,0.0987,0.0991,0.0983,0.0966,0.0962,0.0877,0.0891,0.0871,0.0791,0.0736,0.0709,0.0726,0.0612,0.0593,0.0516,0.0434,0.0496,0.0493,0.0351,0.0349,0.0347,0.027,0,0,0,0,0,0,0.0987,0.0952,0.0979,0.0974,0.0934,0.087,0.0859,0.0871,0.0736,0.0714,0.0792,0.078,0.0616,0.06,0.0587,0.0436,0.0502,0.0498,0.0496,0.035,0.0348,0.0347,0,0,0,0,0,0,0.095,0.0949,0.0976,0.094,0.0929,0.0865,0.0855,0.0828,0.0733,0.0796,0.0784,0.0788,0.0625,0.0606,0.0595,0.0557,0.0507,0.0503,0.0501,0.0499,0.0348,0.0347,0,0,0,0,0,0,0.0948,0.0946,0.094,0.0932,0.0922,0.085,0.0835,0.0805,0.0745,0.0801,0.0734,0.0729,0.0633,0.062,0.0602,0.0569,0.056,0.0507,0.0504,0.0502,0.0501,0,0,0,0,0,0,0,0.0945,0.0981,0.1022,0.0925,0.0916,0.0928,0.0926,0.0923,0.0744,0.0739,0.0735,0.0731,0.0529,0.0525,0.0521,0.0579,0,0,0.0507,0.0505,0,0,0,0,0,0,0,0,0.0979,0.0981,0.1022,0.1021,0.1021,0.0928,0.0926,0.0924,0.0743,0.074,0.0736,0.0733,0.0528,0.0525,0.0521,0,0,0,0,0,0,0,0,0,0,0,0,0,0,0,0.1022,0.1021,0,0.0928,0.0926,0.0924,0.0743,0.074,0.0737,0.0734,0.0527,0.0524,0.0521,0,0,0,0,0,0,0,0,0,0,0,0,0,0,0,0,0,0,0,0,0,0,0,0,0,0,0,0,0,0,0,0,0,0,0,0,0,0,0,0,0,0,0,0,0,0,0,0,0,0,0,0,0,0,0,0,0,0,0,0,0,0,0,0,0,0,0,0,0]}]],[[{"header":{"parameterUnit":"kt","parameterCategory":2,"dx":1,"dy":1,"la1":30.253999710083008,"la2":30.299108505249023,"lo1":-89.0895004272461,"lo2":-89.04439544677734,"nx":28,"ny":28,"refTime":"2022-10-31T21:00:00:Z","depth":"4","parameterNumber":2,"parameterNumberName":"U-component_of_CURRENTS"},"data":[-0.0232,-0.0227,-0.0196,-0.0145,-0.0096,-0.0007,0.0099,0.0274,0.0362,0.0652,0.0752,0.0958,0.112,0.126,0.1309,0.1334,0.1398,0.1584,0.1578,0.1794,0.1819,0.1842,0.162,0,0,0,0,0,-0.0193,-0.0194,-0.0158,-0.0074,0.0004,0.0077,0.0255,0.0391,0.0671,0.0772,0.0958,0.1097,0.1256,0.1346,0.1348,0.1456,0.1653,0.1437,0.1607,0.181,0.1838,0.1612,0,0,0,0,0,0,-0.0126,-0.0139,-0.0094,-0.0004,0.0089,0.0174,0.0295,0.048,0.066,0.1038,0.1073,0.133,0.1518,0.1552,0.1638,0.1683,0.1696,0.1653,0.1687,0.1715,0.1509,0.1334,0.128,0,0,0,0,0,-0.0031,-0.0009,-0.0,0.0091,0.0187,0.0297,0.0471,0.0574,0.087,0.1077,0.1271,0.1405,0.1536,0.1669,0.1742,0.185,0.2032,0.198,0.1997,0.1948,0.185,0.1793,0.1784,0.1943,0.1947,0.1949,0.1951,0,0.0113,0.0081,0.0165,0.0206,0.0257,0.0403,0.0508,0.0764,0.0887,0.1225,0.1281,0.1524,0.1655,0.1777,0.1911,0.2066,0.2031,0.2052,0.1999,0.1893,0.1832,0.1815,0.1798,0.1973,0.1971,0.1969,0.1967,0,0.0189,0.0226,0.0222,0.0322,0.0376,0.0433,0.068,0.0796,0.1022,0.1224,0.1318,0.1547,0.1724,0.189,0.2111,0.2065,0.216,0.2122,0.2255,0.2204,0.1854,0.1827,0.201,0.2002,0.1995,0.1989,0.1984,0,0.0318,0.031,0.0381,0.0363,0.0431,0.0519,0.0667,0.0784,0.1013,0.1146,0.1341,0.1499,0.1741,0.1886,0.1992,0.2044,0.2222,0.2019,0.1973,0.2109,0.2083,0.2068,0.2034,0.2345,0.2343,0.2342,0.2341,0,0.0379,0.0417,0.0401,0.0407,0.0473,0.0543,0.0625,0.0778,0.0885,0.1119,0.1248,0.15,0.1644,0.1829,0.1922,0.1917,0.2167,0.2126,0.1943,0.1921,0.2046,0.2015,0.2339,0.2339,0.2338,0.2338,0.2337,0,0.0454,0.0458,0.044,0.05,0.0511,0.0538,0.0668,0.0728,0.0905,0.1002,0.1221,0.1318,0.1539,0.153,0.1803,0.1735,0.1803,0.1849,0.1856,0.1551,0.1389,0.1544,0.1848,0.1843,0.1839,0.1835,0.1832,0,0.0476,0.0468,0.0501,0.0502,0.0488,0.0543,0.06,0.0654,0.0744,0.0865,0.1016,0.1153,0.1189,0.1307,0.1433,0.1495,0.1623,0.148,0.1618,0.1622,0.131,0.1525,0.1574,0.1776,0.1783,0.1788,0.1792,0,0.0483,0.0508,0.0508,0.0509,0.0514,0.0507,0.0568,0.0605,0.0682,0.0765,0.0896,0.1039,0.1123,0.1165,0.1208,0.1316,0.1527,0.1302,0.1303,0.1339,0.1782,0.1491,0.1496,0.1542,0.1548,0.1553,0.1753,0,0.0472,0.0493,0.0507,0.0506,0.0507,0.0502,0.0498,0.0537,0.0574,0.058,0.0749,0.078,0.0888,0.0939,0.0918,0.1131,0.1125,0.1066,0.0956,0.1151,0.1209,0.1241,0.0821,0.0818,0.0815,0.0813,0,0,0.0452,0.0476,0.0486,0.0489,0.0484,0.0466,0.0456,0.0457,0.0421,0.0455,0.0454,0.0619,0.0586,0.0727,0.0807,0.0779,0.0845,0.0788,0.1053,0.108,0.1105,0.117,0.1204,0.0808,0.0807,0.0806,0.0805,0,0.043,0.0475,0.0489,0.0477,0.0465,0.0437,0.0447,0.0407,0.0406,0.0426,0.041,0.0487,0.0507,0.0533,0.0557,0.0727,0.0716,0.079,0.0926,0.1026,0.1056,0.1083,0.1154,0.1186,0.0799,0.0799,0.0799,0,0.0397,0.0405,0.0417,0.0422,0.0404,0.0388,0.0353,0.0348,0.0344,0.0267,0.0272,0.0303,0.0308,0.0378,0.0408,0.0352,0.0584,0.0481,0.0498,0.0517,0.0615,0.0651,0.0683,0.0261,0.0259,0.0258,0,0,0.0374,0.0403,0.0373,0.041,0.0407,0.0362,0.0355,0.0321,0.0286,0.0273,0.0233,0.0235,0.0272,0.0269,0.0273,0.032,0.0329,0.0416,0.0441,0.0462,0.0492,0.0595,0.0631,0.0251,0.0251,0.025,0,0,0.0342,0.0333,0.033,0.0374,0.0346,0.0284,0.0296,0.0271,0.0243,0.0246,0.0174,0.0158,0.0217,0.0179,0.0096,0.0274,0.0174,0.0187,0.0278,0.0308,0.0333,0.0366,0.0012,0,0,0,0,0,0.0292,0.0338,0.0337,0.0341,0.0327,0.0297,0.0289,0.0245,0.024,0.024,0.0204,0.0151,0.0147,0.0069,0.0057,0.017,0.0164,0.0179,0.0194,0.0324,0.0357,0.0386,0,0,0,0,0,0,0.0293,0.0299,0.0334,0.0284,0.028,0.0295,0.0249,0.0236,0.0238,0.0231,0.0162,0.0148,0.0085,0.007,0.006,0.0172,0.0015,0.017,0.0183,0.0195,0.0335,0.0363,0.0386,0,0,0,0,0,0.0294,0.0298,0.03,0.0281,0.0278,0.023,0.0247,0.0236,0.0234,0.0156,0.0142,0.0207,0.0087,0.0075,0.0064,0.0179,0.0021,0.0017,0.0178,0.0189,0.0198,0.0349,0,0,0,0,0,0,0.0294,0.0268,0.0296,0.0292,0.0275,0.0226,0.0221,0.0237,0.0157,0.0146,0.0195,0.019,0.0088,0.0079,0.007,0.019,0.0026,0.0022,0.002,0.0186,0.0194,0.0201,0,0,0,0,0,0,0.0266,0.0266,0.0294,0.0289,0.0283,0.0224,0.0219,0.019,0.0156,0.0199,0.0194,0.0194,0.0102,0.0082,0.0075,0.0029,0.0029,0.0026,0.0024,0.0023,0.0193,0.0199,0,0,0,0,0,0,0.0264,0.0263,0.0289,0.0285,0.028,0.0222,0.0193,0.018,0.0165,0.0202,0.0163,0.0161,0.0106,0.0097,0.0078,0.0035,0.003,0.0029,0.0027,0.0026,0.0025,0,0,0,0,0,0,0,0.0262,0.0289,0.033,0.0281,0.0277,0.0253,0.0251,0.0249,0.0165,0.0164,0.0163,0.0162,0.0048,0.0044,0.0041,0.0041,0,0,0.003,0.0028,0,0,0,0,0,0,0,0,0.0287,0.0288,0.033,0.0329,0.0329,0.0253,0.0251,0.025,0.0165,0.0164,0.0163,0.0162,0.0047,0.0044,0.0041,0,0,0,0,0,0,0,0,0,0,0,0,0,0,0,0.033,0.0329,0,0.0253,0.0251,0.025,0.0165,0.0164,0.0163,0.0163,0.0046,0.0044,0.0041,0,0,0,0,0,0,0,0,0,0,0,0,0,0,0,0,0,0,0,0,0,0,0,0,0,0,0,0,0,0,0,0,0,0,0,0,0,0,0,0,0,0,0,0,0,0,0,0,0,0,0,0,0,0,0,0,0,0,0,0,0,0,0,0,0,0,0,0,0]}],[{"header":{"parameterUnit":"kt","parameterCategory":2,"dx":1,"dy":1,"la1":30.253999710083008,"la2":30.299108505249023,"lo1":-89.0895004272461,"lo2":-89.04439544677734,"nx":28,"ny":28,"refTime":"2022-10-31T21:00:00:Z","depth":"4","parameterNumber":3,"parameterNumberName":"V-component_of_CURRENTS"},"data":[0.0615,0.068,0.0717,0.0791,0.0868,0.0993,0.1076,0.1107,0.1055,0.1067,0.0933,0.0904,0.0658,0.0815,0.0417,0.037,0.0379,0.0088,0.0083,0.0154,0.017,0.0184,0.0333,0,0,0,0,0,0.065,0.0682,0.0755,0.0867,0.0983,0.1072,0.1157,0.1212,0.1248,0.114,0.1166,0.0972,0.0715,0.0603,0.0429,0.04,0.0278,0.0187,0.0251,0.0164,0.0181,0.0321,0,0,0,0,0,0,0.0695,0.0738,0.0841,0.0934,0.1055,0.1131,0.1199,0.1211,0.1244,0.1225,0.1152,0.0997,0.0916,0.0653,0.0472,0.0316,0.0309,0.0281,0.0291,0.0305,0.0428,0.0533,0.0184,0,0,0,0,0,0.0744,0.0815,0.0895,0.1008,0.1104,0.1212,0.1303,0.13,0.1379,0.1399,0.1263,0.1131,0.0892,0.0714,0.0507,0.0359,0.0399,0.0267,0.0277,0.043,0.0504,0.0472,0.0503,0.0246,0.0248,0.0249,0.025,0,0.0806,0.0843,0.1014,0.1073,0.1159,0.1273,0.1339,0.1448,0.1457,0.1435,0.1389,0.1244,0.119,0.0788,0.0688,0.045,0.0435,0.0311,0.0474,0.0535,0.0492,0.052,0.0547,0.0264,0.0263,0.0262,0.0261,0,0.0838,0.0935,0.1026,0.1179,0.1225,0.1291,0.1442,0.1466,0.1509,0.1495,0.1499,0.144,0.126,0.1166,0.0905,0.0832,0.0625,0.0527,0.0783,0.0733,0.0559,0.0581,0.0286,0.0281,0.0277,0.0274,0.0271,0,0.093,0.098,0.1132,0.1173,0.1253,0.1363,0.1432,0.1489,0.1535,0.1532,0.1567,0.1525,0.1458,0.1314,0.1218,0.0975,0.0961,0.0848,0.0774,0.1016,0.1034,0.0957,0.0972,0.0859,0.0861,0.0863,0.0865,0,0.0972,0.1087,0.1159,0.1202,0.1338,0.1403,0.1477,0.154,0.1583,0.159,0.158,0.1568,0.1527,0.1411,0.1292,0.1349,0.1034,0.1058,0.0869,0.0863,0.0975,0.0985,0.0867,0.0868,0.0868,0.0869,0.087,0,0.1057,0.1111,0.1197,0.1308,0.1328,0.1397,0.1473,0.1545,0.1584,0.1614,0.165,0.1655,0.1628,0.1646,0.1467,0.1552,0.1417,0.132,0.1306,0.1198,0.1153,0.1162,0.1129,0.1132,0.1136,0.1139,0.1141,0,0.1078,0.1148,0.1208,0.129,0.1324,0.1396,0.1474,0.1532,0.1578,0.1603,0.1644,0.1673,0.1739,0.174,0.1686,0.1562,0.147,0.1603,0.1276,0.1266,0.1184,0.1128,0.1461,0.1185,0.1179,0.1175,0.1172,0,0.107,0.1179,0.1181,0.1219,0.1292,0.1314,0.1416,0.1464,0.1481,0.1593,0.161,0.1723,0.1704,0.1724,0.1722,0.1647,0.1527,0.1605,0.1596,0.1476,0.1258,0.1189,0.1156,0.1478,0.1474,0.1472,0.1202,0,0.1119,0.1161,0.118,0.1217,0.1256,0.1286,0.133,0.1391,0.1446,0.1464,0.155,0.1589,0.1627,0.1658,0.1673,0.1641,0.1605,0.1575,0.1513,0.1532,0.1415,0.1392,0.1645,0.1644,0.1642,0.1641,0,0,0.1081,0.1112,0.1118,0.1147,0.1169,0.1175,0.1208,0.1255,0.1315,0.1337,0.1376,0.1486,0.1514,0.1556,0.1594,0.1613,0.1536,0.1628,0.1552,0.1543,0.1534,0.1423,0.1402,0.1639,0.1639,0.1639,0.1638,0,0.1063,0.1088,0.1105,0.1128,0.114,0.1149,0.1162,0.1187,0.1224,0.1322,0.1318,0.136,0.1489,0.1485,0.1508,0.1595,0.1519,0.1635,0.1671,0.1547,0.1539,0.1532,0.1422,0.1404,0.1635,0.1636,0.1636,0,0.1029,0.1028,0.104,0.1059,0.107,0.1101,0.1073,0.1103,0.1148,0.1149,0.1256,0.1286,0.1324,0.141,0.1452,0.1429,0.1466,0.1527,0.1534,0.1527,0.1394,0.1388,0.1382,0.1445,0.1445,0.1444,0,0,0.1005,0.1025,0.1018,0.1049,0.1055,0.1061,0.1076,0.1081,0.1114,0.114,0.119,0.124,0.1294,0.1333,0.1385,0.1466,0.1381,0.1505,0.1514,0.1522,0.152,0.1391,0.1386,0.1442,0.1442,0.1442,0,0,0.0989,0.098,0.0981,0.1013,0.1024,0.1023,0.1053,0.1055,0.1116,0.1127,0.1154,0.117,0.1265,0.1277,0.1248,0.1375,0.1335,0.1343,0.1376,0.1387,0.1396,0.138,0.1232,0,0,0,0,0,0.0944,0.0976,0.0976,0.0978,0.1003,0.1021,0.1027,0.1037,0.1037,0.107,0.1115,0.1116,0.1262,0.1237,0.1254,0.1307,0.1417,0.1422,0.1426,0.1488,0.1499,0.1509,0,0,0,0,0,0,0.0944,0.0948,0.0974,0.097,0.0975,0.102,0.1,0.1005,0.1034,0.1037,0.1106,0.1117,0.1133,0.1229,0.1245,0.1294,0.1227,0.1419,0.1423,0.1426,0.1492,0.1501,0.1509,0,0,0,0,0,0.0945,0.0948,0.0986,0.0971,0.0975,0.0987,0.1,0.1004,0.1044,0.107,0.1082,0.105,0.1132,0.1149,0.1239,0.1287,0.1216,0.1222,0.1421,0.1424,0.1427,0.1496,0,0,0,0,0,0,0.0945,0.0967,0.0987,0.0989,0.0963,0.0987,0.0992,0.1003,0.1079,0.1087,0.1013,0.1014,0.1132,0.1145,0.1158,0.1284,0.1208,0.1213,0.1217,0.1424,0.1426,0.1428,0,0,0,0,0,0,0.0965,0.0969,0.0988,0.0977,0.0978,0.0986,0.099,0.1051,0.1082,0.1021,0.1021,0.1013,0.1124,0.1143,0.1153,0.1246,0.1201,0.1206,0.121,0.1213,0.1425,0.1427,0,0,0,0,0,0,0.0967,0.097,0.0978,0.0978,0.0979,0.1004,0.1044,0.1082,0.1032,0.102,0.103,0.1029,0.1122,0.1132,0.1149,0.1238,0.1244,0.1201,0.1205,0.1208,0.1209,0,0,0,0,0,0,0,0.0968,0.0942,0.0967,0.0979,0.098,0.1,0.1001,0.1003,0.1031,0.1031,0.103,0.103,0.1169,0.1175,0.1182,0.1232,0,0,0.1201,0.1203,0,0,0,0,0,0,0,0,0.0941,0.0942,0.0967,0.0967,0.0967,0.1,0.1001,0.1003,0.1031,0.1031,0.103,0.103,0.1171,0.1176,0.1181,0,0,0,0,0,0,0,0,0,0,0,0,0,0,0,0.0967,0.0967,0,0.1,0.1001,0.1002,0.1031,0.1031,0.1031,0.103,0.1172,0.1176,0.1181,0,0,0,0,0,0,0,0,0,0,0,0,0,0,0,0,0,0,0,0,0,0,0,0,0,0,0,0,0,0,0,0,0,0,0,0,0,0,0,0,0,0,0,0,0,0,0,0,0,0,0,0,0,0,0,0,0,0,0,0,0,0,0,0,0,0,0,0,0]}]]]